STARLINK-1379 (45549 NORAD) Tracking and Keplerian Element Data

This shows tracking and keplerian element data for the satellite.

Feedback or suggestion? Click here.




ElementValue
Catalog45549
NameSTARLINK-1379
Epoch Orbit181
Epoch Day188.91667824
Epoch Year2020
RAAN47.1697
Inclination53.0001
Eccentricity0.0001705
Argument of Perigee85.1946
Mean Anonmoly1.6265
Mean Motion15.05576555
Decay Rate-0.00011147
L11 45549U 20025U 20188.91667824 -.00011147 00000-0 -74709-3 0 9994
L22 45549 53.0001 47.1697 0001705 85.1946 1.6265 15.05576555 1812

Live tracking and technical data element details for STARLINK-1379 (NORAD 45549). STARLINK-1379 can be tracked NOW for your location showing map with azimuth and elevation plus other details from your city location.

Track the satellite on the map from your city or location and see movement details for azimuth, elevation, latitude, longitude, range, height, and movement on the map or in text.







IsCatalogInMostPopularTable: catalog: 45549, numindb: 16
Update: records affected: 1



GetName: 45549 STARLINK-1379

Hit Count: updated at: Wed, 08 Jul 2020 03:53:20 GMT